Date,TemperatureHighF,TemperatureAvgF,TemperatureLowF,DewpointHighF,DewpointAvgF,DewpointLowF,HumidityHigh,HumidityAvg,HumidityLow,PressureMaxIn,PressureMinIn,WindSpeedMaxMPH,WindSpeedAvgMPH,GustSpeedMaxMPH,PrecipitationSumIn
2013-1-1,46.4,40.6,36.9,45.6,37.9,34.4,98,90,79,29.58,29.05,6,1,9,0.02
2013-1-2,50.0,44.3,37.2,49.0,42.3,33.4,97,93,86,29.86,29.58,5,1,10,26.87
2013-1-3,51.6,49.4,47.3,50.4,48.0,46.3,98,95,91,30.15,29.85,5,1,8,0.00
2013-1-4,49.3,47.5,45.3,46.3,44.7,42.6,95,90,86,30.18,30.12,4,0,8,0.00
2013-1-5,50.4,47.6,43.7,49.1,46.2,42.4,97,95,92,30.13,30.04,3,0,8,0.01
2013-1-6,46.4,44.4,41.9,45.6,43.7,41.4,99,97,96,30.04,29.91,4,0,6,0.00
2013-1-7,46.4,45.0,43.5,45.6,44.2,42.7,98,97,96,29.92,29.77,2,0,4,0.01
2013-1-8,50.4,48.0,46.4,48.4,46.6,45.2,97,95,90,29.79,29.71,4,1,6,0.06
2013-1-9,48.9,44.6,36.1,48.1,43.2,33.2,98,95,89,29.98,29.59,6,1,11,27.00
2013-1-10,42.1,39.5,36.1,40.8,38.3,33.2,97,95,89,29.59,29.43,4,1,8,0.00
2013-1-11,43.7,39.9,36.9,43.0,39.0,34.8,98,96,92,29.60,29.51,4,1,7,0.01
2013-1-12,45.7,36.2,34.9,36.1,33.3,31.3,95,89,83,29.65,29.32,10,4,17,27.11
2013-1-13,36.3,33.9,31.5,34.2,29.2,26.4,92,83,73,30.15,29.45,8,2,14,0.00
2013-1-14,36.1,33.2,30.7,34.3,30.6,27.4,94,90,83,30.11,29.65,9,1,17,0.14
2013-1-15,35.8,32.9,29.5,32.4,30.0,26.9,95,89,83,29.87,29.65,14,3,21,27.25
2013-1-16,31.5,28.7,26.2,29.9,26.4,23.5,96,91,87,30.01,29.81,4,1,7,0.00
2013-1-18,28.9,28.3,27.5,27.7,17.2,-23.4,95,77,8,30.01,29.45,9,3,14,0.00
2013-1-20,30.4,30.4,30.4,28.6,28.6,28.6,93,93,93,28.81,28.80,1,0,2,0.00
2013-1-21,36.3,31.1,26.8,32.0,28.1,22.9,94,88,81,29.02,28.77,2,0,3,0.00
2013-1-22,27.0,26.1,25.5,23.3,22.8,22.2,88,87,85,29.02,29.01,2,0,3,0.00
2013-1-26,46.2,41.4,35.6,45.1,40.0,34.3,99,95,88,29.37,29.05,7,2,12,0.29
2013-1-27,48.0,45.8,43.3,47.8,45.3,42.5,99,98,97,29.07,28.81,7,3,11,0.13
2013-1-30,50.7,50.7,50.7,49.9,49.9,49.9,97,97,97,29.08,29.08,0,0,0,0.00
2013-2-3,47.5,46.1,42.8,45.8,44.0,39.5,94,92,88,29.55,29.45,4,1,10,0.00
2013-2-4,50.0,45.3,41.0,45.9,39.3,33.3,94,80,57,30.09,29.39,6,2,14,0.00
2013-2-5,45.9,39.0,33.8,37.5,31.6,26.4,89,75,56,29.88,29.51,4,2,14,0.01
2013-2-6,45.1,42.3,33.6,42.0,38.5,24.4,97,87,63,30.01,29.48,16,2,20,0.21
2013-2-7,43.3,36.3,31.3,33.9,29.8,24.3,89,77,66,30.05,29.51,13,3,13,0.01
2013-2-8,42.3,34.9,32.4,36.5,32.0,30.0,93,89,76,30.08,29.96,11,3,14,0.04
2013-2-9,95.8,35.4,33.8,35.4,33.3,0.9,95,92,89,30.08,29.78,4,1,11,0.07
2013-2-10,102.9,37.9,35.4,40.4,37.4,4.0,100,98,95,29.78,28.98,7,3,20,0.27
2013-2-11,35.6,33.0,32.2,35.4,32.6,31.4,100,99,97,29.69,29.20,11,3,11,0.04
2013-2-12,34.5,33.3,32.0,32.0,29.5,27.6,97,86,81,30.05,29.69,11,2,11,0.04
2013-2-13,38.7,33.0,31.5,38.4,28.7,26.1,99,84,72,30.11,29.90,14,3,14,0.02
2013-2-14,54.5,44.7,38.8,53.7,42.5,37.4,100,92,76,29.92,29.68,14,3,14,0.08
2013-2-15,57.6,42.2,36.1,45.1,36.6,33.4,96,81,59,30.14,29.92,8,2,8,0.02
2013-2-16,50.7,44.8,39.4,42.9,38.2,34.5,88,77,71,30.18,30.12,5,2,5,0.00
2013-2-17,47.3,42.6,36.5,44.5,35.9,28.5,100,78,53,30.14,29.84,14,4,14,0.00
2013-2-18,47.5,38.6,32.5,40.4,32.4,27.3,99,79,62,29.90,29.83,13,4,14,0.00
2013-2-19,61.9,40.1,31.8,43.8,32.7,27.4,97,76,46,29.88,29.80,6,2,6,0.00
2013-2-20,40.3,36.4,32.0,37.3,30.4,23.5,99,79,64,29.99,29.84,17,6,17,0.00
2013-2-21,34.7,32.2,29.3,23.5,20.0,17.3,71,61,51,29.98,29.89,17,7,17,0.00
2013-2-22,34.2,31.8,30.7,23.0,20.1,17.9,71,62,57,29.89,29.82,17,6,17,0.00
2013-2-23,34.5,31.9,29.5,25.2,22.8,19.9,81,69,58,29.95,29.81,16,6,16,0.00
2013-2-24,34.2,32.3,30.0,27.1,25.4,23.0,85,76,66,30.02,29.93,17,7,17,0.00
2013-2-25,37.4,35.4,32.0,33.6,30.7,23.9,89,83,71,30.11,29.99,17,7,19,0.00
2013-2-26,38.3,36.9,34.9,38.0,36.0,32.1,100,96,87,30.29,30.10,17,6,17,0.02
2013-2-27,39.6,36.0,33.8,36.0,33.0,30.1,97,89,76,30.30,30.21,14,6,14,0.01
2013-2-28,44.1,38.1,32.4,36.4,33.0,30.0,92,82,72,30.22,29.87,16,6,17,0.00
2013-3-1,42.1,38.2,34.5,41.0,32.9,27.7,100,82,65,29.96,29.89,17,5,17,0.02
2013-3-2,40.3,35.8,32.0,31.5,28.1,26.6,83,73,69,29.95,29.83,10,3,10,0.01
2013-3-3,42.8,36.1,28.6,35.1,31.0,24.9,91,82,72,29.84,29.65,11,4,11,0.00
2013-3-4,49.3,39.7,31.3,36.5,32.8,29.8,95,78,50,29.65,29.30,11,4,11,0.00
2013-3-5,66.4,47.0,36.0,46.7,38.6,31.3,96,74,48,29.30,29.15,11,2,11,0.00
2013-3-6,56.3,48.9,44.1,44.7,40.8,36.5,91,74,64,29.16,29.08,9,3,9,0.01
2013-3-7,49.6,46.8,43.9,49.4,46.2,42.9,100,98,91,29.08,28.94,10,3,10,0.21
2013-3-8,50.2,48.5,47.7,49.9,48.2,47.4,99,99,99,29.13,28.95,6,2,6,0.25
2013-3-9,48.0,43.8,37.2,47.8,43.4,35.7,100,99,94,29.24,29.11,10,3,10,0.02
2013-3-10,37.2,35.0,32.0,35.7,30.2,25.3,94,83,75,29.29,29.21,21,7,21,0.00
2013-3-11,32.2,29.8,27.1,26.4,20.8,15.9,81,69,56,29.29,29.24,31,12,31,0.00
2013-3-12,37.6,31.8,26.4,29.0,18.8,10.9,83,60,39,29.39,29.26,27,11,27,0.00
2013-3-13,43.9,36.4,30.9,31.3,26.0,21.0,82,67,50,29.51,29.35,17,6,17,0.00
2013-3-14,49.8,36.1,27.7,35.1,25.1,19.4,89,66,47,29.59,29.49,11,3,12,0.00
2013-3-15,49.3,41.6,33.8,42.8,37.2,24.4,100,85,68,29.49,29.12,12,4,12,0.22
2013-3-16,45.1,41.9,38.5,44.4,41.3,38.2,100,98,93,29.12,28.84,22,6,22,0.27
2013-3-17,45.1,37.8,32.2,44.3,36.9,30.9,100,96,93,28.90,28.73,13,2,13,0.12
2013-3-18,45.9,37.0,30.9,45.1,36.3,29.9,100,97,93,28.93,28.77,5,1,5,0.38
2013-3-19,45.9,39.6,35.4,43.6,37.3,33.2,100,92,71,29.07,28.93,11,2,11,0.08
2013-3-20,43.2,37.5,33.6,41.5,35.7,32.3,100,93,86,29.55,29.07,12,4,12,0.00
2013-3-21,42.8,38.0,34.3,36.6,33.2,29.7,97,83,68,29.57,29.44,18,7,18,0.09
2013-3-22,44.4,38.0,34.9,37.3,34.6,31.7,97,88,69,29.44,29.26,21,8,21,0.32
2013-3-23,36.5,33.4,32.2,34.9,32.7,31.4,100,97,94,29.41,29.27,16,6,16,0.19
2013-3-24,32.9,31.1,29.8,32.2,27.1,21.4,100,86,65,29.49,29.39,14,1,17,0.02
2013-3-25,33.3,32.0,30.9,24.5,22.4,21.0,74,67,63,29.50,29.46,19,5,19,0.00
2013-3-26,33.3,32.2,31.1,24.5,22.3,21.2,74,66,62,29.48,29.42,17,6,17,0.00
2013-3-27,39.7,34.0,29.8,25.8,23.0,20.1,78,64,52,29.44,29.39,14,5,14,0.02
2013-3-28,43.7,34.9,29.5,32.3,23.4,18.3,83,63,50,29.50,29.40,14,4,14,0.04
2013-3-29,43.9,34.7,27.5,30.0,22.1,17.9,76,60,46,29.47,29.33,16,5,16,0.00
2013-3-30,41.4,35.1,30.6,28.2,25.7,23.2,81,69,53,29.52,29.33,15,4,15,0.00
2013-3-31,43.0,35.3,28.2,29.7,23.7,18.0,84,63,47,29.53,29.44,13,5,13,0.00
2013-4-1,39.9,35.0,31.6,27.1,23.4,17.7,79,63,47,29.44,29.38,21,7,21,0.00
2013-4-2,45.5,36.9,29.5,30.1,20.9,9.4,84,55,26,29.62,29.43,18,7,22,0.00
2013-4-3,39.4,34.4,28.9,29.5,22.3,18.5,86,62,49,29.62,29.54,21,7,21,0.00
2013-4-4,36.0,34.1,32.4,30.8,25.3,18.8,86,70,53,29.55,29.44,24,8,24,0.01
2013-4-5,44.2,37.3,33.1,28.8,24.5,18.2,73,61,36,29.67,29.44,24,9,24,0.00
2013-4-6,46.9,39.2,29.8,32.9,26.2,22.7,86,61,41,29.83,29.67,15,5,15,0.00
2013-4-7,57.0,41.0,29.7,33.3,25.6,21.5,80,56,32,29.84,29.43,12,3,12,0.00
2013-4-8,49.3,42.2,36.7,32.9,29.1,24.2,78,60,43,29.43,29.10,16,6,16,0.00
2013-4-9,44.2,40.5,37.0,44.1,38.8,31.6,100,93,74,29.12,28.93,12,4,12,0.20
2013-4-10,50.7,42.8,37.2,45.9,40.0,35.1,100,90,71,29.28,28.97,11,4,11,0.27
2013-4-11,53.2,46.0,41.7,52.3,44.7,41.5,100,95,82,29.07,28.92,14,3,14,0.07
2013-4-12,52.2,46.6,43.2,52.0,45.4,41.0,100,96,89,29.34,28.86,11,3,11,0.26
2013-4-13,50.9,46.3,38.3,50.6,44.9,37.0,100,95,84,29.46,29.33,14,3,17,0.12
2013-4-14,65.1,55.4,49.3,53.2,49.9,45.9,100,83,59,29.55,29.46,16,5,16,0.01
2013-4-15,64.8,53.9,46.9,52.7,47.3,43.0,91,79,61,29.66,29.52,9,4,9,0.00
2013-4-16,61.0,52.6,46.4,51.7,45.7,42.9,95,78,55,29.67,29.48,9,4,9,0.01
2013-4-17,60.6,54.0,47.5,54.2,49.0,43.9,100,84,67,29.66,29.37,19,4,19,0.04
2013-4-18,63.3,50.3,43.5,45.7,41.0,35.7,84,71,47,29.67,29.39,13,5,13,0.09
2013-4-19,61.2,48.6,42.6,46.0,37.9,30.9,90,68,44,30.06,29.67,17,5,17,0.01
2013-4-20,61.9,47.1,37.6,40.3,31.0,16.4,93,58,23,30.09,29.93,11,3,11,0.00
2013-4-21,73.4,49.6,33.3,45.4,36.5,26.6,91,64,31,29.93,29.60,10,2,10,0.00
2013-4-22,68.0,51.9,41.5,51.7,45.7,41.1,100,82,48,29.61,29.53,9,2,9,0.00
2013-4-23,79.5,59.6,47.3,54.6,49.9,46.9,100,73,38,29.80,29.56,14,2,14,0.00
2013-4-24,70.5,57.8,46.4,57.0,51.8,45.4,100,82,59,29.84,29.77,5,2,5,0.01
2013-4-25,76.5,59.5,50.0,59.8,52.5,47.8,100,80,55,29.83,29.62,8,2,8,0.00
2013-4-26,56.7,47.3,40.8,49.3,40.2,30.5,100,78,53,29.62,29.48,18,6,18,0.08
2013-4-27,49.3,41.3,36.1,42.4,37.4,33.0,100,86,67,29.67,29.46,22,5,22,0.12
2013-4-28,65.8,47.5,33.8,47.3,38.5,33.6,100,73,46,29.67,29.49,8,3,8,0.00
2013-4-29,68.4,51.9,43.5,45.9,40.6,36.6,100,68,39,29.75,29.47,12,3,12,0.01
2013-4-30,61.0,49.1,39.6,42.9,36.7,31.2,94,65,39,29.87,29.75,16,5,16,0.00
2013-5-1,61.9,49.1,37.4,44.4,36.1,27.9,100,65,35,29.87,29.73,14,5,14,0.00
2013-5-2,62.6,51.9,40.3,36.1,27.0,15.6,72,43,18,29.79,29.72,17,4,17,0.00
2013-5-3,80.1,56.3,41.7,46.5,40.6,33.4,76,58,26,29.76,29.64,10,2,10,0.00
2013-5-4,60.8,52.3,44.2,56.0,44.1,35.0,95,75,46,29.72,29.56,10,3,10,0.01
2013-5-5,67.3,56.4,43.7,54.0,48.6,40.1,94,76,60,29.78,29.71,6,1,6,0.00
2013-5-6,82.4,60.5,47.3,55.3,48.8,44.1,95,68,35,29.75,29.64,8,2,8,0.00
2013-5-7,78.1,60.1,46.8,52.3,44.2,38.3,90,59,30,29.66,29.44,12,3,12,0.07
2013-5-8,61.7,55.1,47.3,59.3,51.3,44.9,100,87,72,29.44,29.27,8,3,8,0.11
2013-5-9,62.8,50.5,41.7,51.3,45.8,41.5,100,85,55,29.42,29.26,14,5,14,0.05
2013-5-10,63.0,53.6,46.8,51.7,48.9,45.6,100,85,60,29.52,29.28,10,4,10,0.01
2013-5-11,60.6,49.2,41.7,53.8,45.5,40.1,100,88,67,30.00,29.51,14,2,14,0.09
2013-5-12,68.2,51.6,41.0,52.0,46.3,40.7,100,85,46,30.11,30.00,8,3,9,0.04
2013-5-13,64.2,52.7,44.8,51.3,46.2,41.2,100,80,52,30.01,29.91,11,3,11,0.02
2013-5-14,56.5,47.4,43.0,49.7,45.2,41.3,100,92,69,29.92,29.32,17,4,17,0.20
2013-5-15,57.6,48.1,42.3,50.2,44.8,41.8,100,89,66,30.39,29.32,11,5,15,0.26
2013-5-16,68.4,50.8,39.0,52.9,43.4,38.8,100,78,44,30.22,30.14,8,2,8,0.02
2013-5-17,55.6,48.5,41.7,48.8,43.7,39.8,100,84,71,30.47,30.21,14,3,14,0.00
2013-5-18,67.1,54.7,46.2,53.1,45.9,43.5,92,73,56,30.47,30.38,12,2,12,0.00
2013-5-19,63.1,56.3,49.1,51.2,48.1,45.8,93,75,58,30.56,30.43,17,4,20,0.01
2013-5-20,62.6,56.0,48.7,58.0,53.5,47.6,100,91,83,30.58,30.50,18,7,18,0.00
2013-5-21,59.0,55.8,52.3,57.1,52.9,49.5,100,90,77,30.74,30.58,18,6,18,0.00
2013-5-22,59.5,53.2,45.1,53.3,46.7,36.7,100,80,60,30.76,30.68,18,5,18,0.00
2013-5-23,55.4,45.1,39.9,43.4,38.9,34.3,94,80,50,30.68,30.55,18,5,18,0.06
2013-5-24,47.3,42.8,38.7,45.7,41.4,37.4,100,95,83,30.65,30.30,26,5,26,0.12
2013-5-25,41.2,41.2,41.2,40.9,40.9,40.9,99,99,99,30.65,30.65,7,7,11,0.00
2013-5-26,62.4,42.3,41.2,42.5,40.7,37.8,99,95,48,30.65,29.90,7,6,11,0.00
2013-5-27,75.0,55.2,41.2,51.7,42.5,36.3,96,64,42,29.90,29.55,18,3,18,0.00
2013-5-28,52.5,49.1,46.4,52.5,48.2,44.4,100,97,81,29.55,29.42,6,1,6,0.52
2013-5-29,67.8,52.5,41.5,59.2,49.6,-5.3,100,91,58,29.71,29.49,13,3,13,0.02
2013-5-30,58.8,53.7,51.1,56.9,52.5,50.8,100,96,84,29.93,29.68,19,6,19,0.13
2013-5-31,71.1,60.1,50.2,58.2,53.5,49.9,100,80,62,30.07,29.92,18,5,18,0.00
2013-6-1,68.4,57.7,48.6,50.7,46.2,43.2,93,67,48,30.24,30.06,21,7,21,0.00
2013-6-2,70.0,57.1,46.8,49.8,44.6,42.2,92,65,43,30.36,30.23,14,4,14,0.00
2013-6-3,68.0,57.2,46.4,52.0,45.1,41.1,94,66,44,30.41,30.32,17,4,17,0.00
2013-6-4,67.1,57.2,43.5,49.3,44.0,39.4,90,64,42,30.35,30.13,17,6,17,0.00
2013-6-5,67.1,57.0,45.9,50.6,47.6,43.7,100,74,51,30.15,30.01,14,5,14,0.00
2013-6-6,69.3,58.8,46.4,53.4,49.7,46.1,100,74,54,30.11,30.05,14,5,14,0.00
2013-6-7,66.6,56.7,48.7,56.7,49.6,44.9,96,78,59,30.15,30.09,14,6,23,0.07
2013-6-8,63.7,56.3,46.0,49.4,46.9,45.2,100,72,57,30.13,29.97,21,7,21,0.01
2013-6-9,58.5,51.6,49.3,49.5,46.6,45.3,92,83,68,29.99,29.89,17,5,17,0.00
2013-6-10,61.2,53.4,47.1,49.8,45.8,43.7,90,76,60,29.93,29.88,11,2,11,0.00
2013-6-11,62.8,54.9,46.2,61.3,53.5,43.0,100,95,87,29.89,29.82,11,3,11,0.01
2013-6-12,61.2,57.9,54.0,60.1,57.0,53.1,100,97,88,29.83,29.74,11,4,11,0.13
2013-6-13,63.0,56.6,50.5,57.7,52.7,46.9,100,88,64,29.98,29.71,12,4,12,0.01
2013-6-14,65.1,55.5,45.5,56.1,50.0,44.6,100,83,57,29.99,29.72,14,3,14,0.00
2013-6-15,65.7,56.9,48.7,56.5,52.2,48.5,100,85,61,30.01,29.63,14,4,14,0.19
2013-6-16,52.0,52.0,52.0,50.0,50.0,50.0,93,93,93,30.01,30.01,2,2,4,0.00
2013-6-17,52.0,52.0,52.0,50.0,50.0,50.0,93,93,93,30.01,30.01,2,2,4,0.00
2013-6-18,70.0,54.5,52.0,60.6,51.9,50.0,93,91,73,30.01,29.92,3,1,4,0.05
2013-6-19,82.4,68.2,59.2,65.6,60.3,57.2,96,78,50,29.95,29.89,11,3,11,0.00
2013-6-20,69.3,63.6,57.2,64.8,60.6,54.9,100,90,81,29.92,29.77,8,2,8,0.00
2013-6-21,72.0,61.8,55.9,64.6,59.1,54.2,100,92,71,29.85,29.74,8,2,8,0.15
2013-6-22,68.0,58.3,52.5,64.6,54.9,52.1,100,89,70,29.84,29.63,11,4,11,0.12
2013-6-23,67.6,58.6,52.5,57.8,53.5,51.1,97,84,66,30.00,29.63,14,3,14,0.01
2013-6-24,63.9,56.9,48.4,54.4,48.6,45.6,97,75,57,30.27,30.00,17,2,17,0.01
2013-6-25,74.7,61.1,49.1,54.1,49.1,46.0,92,66,44,30.39,30.26,11,2,11,0.00
2013-6-26,78.8,63.7,51.8,58.1,51.4,46.8,86,66,43,30.40,30.33,8,2,9,0.00
2013-6-27,73.0,60.2,52.0,55.6,51.2,47.3,100,74,47,30.35,30.15,11,4,11,0.08
2013-6-28,72.5,61.3,53.6,67.5,59.2,52.8,100,93,74,30.15,30.03,6,2,7,0.07
2013-6-29,75.2,63.2,55.2,58.2,53.6,50.2,100,73,48,30.23,30.06,15,4,16,0.00
2013-6-30,86.9,67.9,56.8,65.4,59.3,52.7,100,76,46,30.22,30.05,7,2,7,0.01
2013-7-1,77.9,63.2,54.3,57.9,53.0,48.8,93,71,46,30.05,29.96,11,2,11,0.00
2013-7-2,62.6,57.9,52.0,56.9,52.7,48.0,95,83,72,29.97,29.62,11,2,11,0.00
2013-7-3,71.2,62.1,55.8,61.6,57.7,52.1,100,86,67,29.99,29.57,8,2,8,0.02
2013-7-4,73.2,63.7,53.6,64.1,58.9,51.3,100,85,68,30.23,29.98,7,2,7,0.00
2013-7-5,81.9,64.9,53.1,62.0,56.0,51.7,100,75,46,30.38,30.22,11,2,11,0.00
2013-7-6,82.0,68.5,55.2,63.5,57.5,52.5,91,70,48,30.38,30.32,6,1,6,0.01
2013-7-7,82.8,72.1,59.9,64.7,58.4,54.1,95,65,42,30.47,30.37,17,3,17,0.00
2013-7-8,79.0,69.1,58.3,62.8,57.1,53.0,94,68,44,30.48,30.38,16,5,16,0.00
2013-7-9,76.3,67.2,54.5,58.7,49.3,39.0,92,57,28,30.41,30.23,15,4,15,0.00
2013-7-10,66.2,66.2,66.2,50.5,50.5,50.5,57,57,57,30.25,30.25,0,0,3,0.00
2013-7-11,69.6,66.1,57.6,52.9,50.6,48.0,83,58,50,30.25,29.88,11,4,11,0.00
2013-7-12,73.0,63.2,53.4,58.9,54.6,51.0,93,75,56,29.95,29.89,10,2,10,0.00
2013-7-13,87.3,74.0,61.3,66.6,61.4,56.7,86,66,47,29.93,29.88,13,3,13,0.00
2013-7-14,90.1,74.9,63.1,67.4,61.7,57.5,90,65,42,29.92,29.85,13,2,13,0.00
2013-7-15,93.4,74.9,62.4,61.1,55.6,48.4,77,53,31,29.91,29.86,8,3,8,0.00
2013-7-16,93.6,75.8,64.0,66.1,59.2,52.9,82,58,36,29.89,29.85,8,2,8,0.00
2013-7-17,92.1,75.5,63.9,65.3,60.0,54.1,81,60,39,29.91,29.88,8,2,8,0.00
2013-7-18,83.3,76.1,64.4,62.5,58.6,55.7,76,55,44,29.98,29.93,16,5,16,0.00
2013-7-19,79.0,69.7,57.4,60.3,56.1,52.0,84,63,45,29.97,29.87,17,6,17,0.00
2013-7-20,72.0,66.1,60.1,61.2,59.7,58.0,96,80,66,29.91,29.80,17,5,17,0.00
2013-7-21,77.4,67.5,59.0,62.9,59.7,55.0,91,77,58,29.83,29.69,12,4,13,0.00
2013-7-22,89.8,76.0,62.6,69.7,62.7,59.3,96,65,47,29.75,29.62,10,3,10,0.00
2013-7-23,84.4,73.3,62.6,71.1,63.5,57.7,86,72,59,29.97,29.33,5,2,8,0.04
2013-7-24,85.8,68.2,58.3,66.1,60.0,56.3,95,77,46,29.98,29.93,8,2,8,0.00
2013-7-25,75.0,66.7,59.7,68.5,61.7,55.7,100,85,66,29.95,29.88,8,2,8,0.11
2013-7-26,81.5,68.3,56.7,63.9,57.6,51.6,100,71,50,29.93,29.86,5,1,5,0.01
2013-7-27,81.9,67.3,58.3,64.4,56.5,48.5,100,71,32,29.86,29.59,11,2,13,0.19
2013-7-28,77.7,66.2,57.6,64.7,59.9,57.3,100,82,55,29.77,29.62,10,3,10,0.08
2013-7-29,74.8,65.0,59.4,64.4,60.3,54.9,100,86,66,29.98,29.77,11,3,11,0.06
2013-7-30,69.1,62.6,58.1,67.4,61.3,57.8,100,96,84,29.98,29.86,8,2,8,0.11
2013-7-31,72.9,65.6,59.0,66.9,62.6,57.8,100,90,77,30.00,29.95,9,2,10,0.01
2013-8-1,85.6,73.7,61.3,70.4,64.8,60.6,100,76,51,29.95,29.70,12,3,16,0.00
2013-8-2,73.9,67.7,62.2,66.5,61.2,58.1,95,80,62,29.83,29.73,8,2,8,0.00
2013-8-3,63.5,63.5,63.5,59.3,59.3,59.3,86,86,86,29.83,29.83,2,2,2,0.00
2013-8-4,63.5,63.5,63.5,59.3,59.3,59.3,86,86,86,29.83,29.83,2,2,2,0.00
2013-8-5,73.0,64.4,57.6,63.0,60.4,57.3,100,87,63,30.07,29.80,9,2,10,0.59
2013-8-6,74.1,63.0,52.7,62.7,55.4,50.4,100,78,51,30.07,29.95,8,2,8,0.00
2013-8-7,70.2,62.8,56.1,58.2,53.0,49.1,94,72,52,30.07,29.92,13,3,13,0.00
2013-8-8,82.4,66.5,55.4,57.9,54.5,49.3,87,67,38,30.16,30.06,5,2,7,0.00
2013-8-9,79.3,66.6,59.7,68.5,56.7,48.8,100,72,51,30.22,30.05,11,3,11,0.01
2013-8-10,71.8,63.1,54.1,56.8,51.4,48.5,85,67,51,30.24,30.17,8,2,8,0.00
2013-8-11,73.0,64.4,58.1,62.3,54.6,49.2,92,72,50,30.17,30.05,9,2,9,0.01
2013-8-12,71.2,62.0,55.2,58.2,51.0,46.8,90,69,47,30.13,30.02,10,2,10,0.00
2013-8-13,70.3,60.5,51.4,55.1,51.6,48.1,90,74,51,30.22,29.86,12,2,12,0.01
2013-8-14,59.0,59.0,59.0,53.9,53.9,53.9,83,83,83,29.94,29.94,0,0,1,0.00
2013-8-15,71.4,62.6,59.0,62.7,56.9,53.9,85,82,74,30.01,29.92,5,1,5,0.00
2013-8-16,69.1,64.2,60.6,64.1,59.6,56.0,93,85,84,30.09,29.89,4,1,4,0.32
2013-8-17,68.9,62.1,55.9,61.1,57.6,54.2,95,85,67,29.98,29.30,8,2,8,0.01
2013-8-18,70.0,67.1,65.7,63.9,61.7,59.8,88,83,77,29.43,29.40,2,0,5,0.00
2013-8-21,76.1,74.8,73.8,57.7,56.6,55.4,57,53,49,30.23,30.21,0,0,0,0.00
2013-8-22,74.3,68.7,59.7,71.1,61.7,57.6,99,80,57,30.22,30.11,9,2,9,1.57
2013-8-23,77.7,68.5,58.8,64.2,59.9,56.8,99,76,51,30.11,29.91,10,2,10,0.12
2013-8-24,67.3,61.6,58.3,61.6,59.4,54.7,99,93,77,29.94,29.87,13,3,13,0.11
2013-8-25,71.4,61.5,53.1,65.1,56.8,49.5,99,86,63,30.10,29.89,12,4,12,0.05
2013-8-26,73.9,65.4,59.0,62.8,57.2,50.4,99,77,52,30.15,30.09,12,3,12,0.00
2013-8-27,72.9,62.8,55.9,59.8,51.8,48.7,92,69,50,30.18,30.11,14,3,14,0.00
2013-8-28,74.3,63.0,54.0,57.5,52.5,48.6,91,70,52,30.28,30.18,11,2,11,0.00
2013-8-29,78.8,66.4,57.4,60.5,56.9,54.2,96,73,49,30.26,30.19,8,1,8,0.00
2013-8-30,73.0,66.8,59.7,62.5,59.0,55.9,93,77,61,30.21,30.11,7,1,7,0.00
2013-8-31,69.4,61.0,54.1,59.9,49.6,42.4,96,68,46,30.46,30.18,17,4,17,0.00
2013-9-1,69.8,59.6,48.7,51.7,48.2,42.1,86,67,51,30.50,30.40,10,2,10,0.00
2013-9-2,79.9,64.3,52.5,59.2,55.8,50.3,94,75,47,30.42,30.35,10,2,10,0.00
2013-9-3,73.9,65.3,57.7,63.3,59.4,56.6,96,82,63,30.42,30.32,6,1,6,0.00
2013-9-4,84.6,67.4,58.5,65.7,56.6,49.9,97,71,42,30.33,30.05,8,1,8,0.00
2013-9-5,83.3,69.1,60.3,64.4,57.0,47.8,95,68,42,30.05,29.84,8,1,8,0.00
2013-9-6,62.1,58.0,53.6,58.2,53.3,48.6,98,85,65,29.90,29.77,10,2,10,0.02
2013-9-7,62.4,54.9,48.9,60.2,51.7,48.7,99,90,70,30.10,29.88,8,1,8,0.26
2013-9-8,67.1,54.0,47.7,55.0,50.8,47.1,99,90,61,30.12,30.08,5,1,5,0.17
2013-9-9,59.5,52.5,47.1,59.1,52.2,46.8,99,99,96,30.11,30.00,11,1,11,0.08
2013-9-10,64.9,54.7,47.3,55.8,49.7,47.0,99,84,69,30.23,30.11,17,4,17,0.00
2013-9-11,62.6,56.0,51.4,54.9,51.4,48.6,98,85,64,30.24,30.16,16,4,16,0.14
2013-9-12,65.3,58.3,53.1,61.8,56.9,52.5,99,95,84,30.17,30.12,5,0,5,0.12
2013-9-13,67.5,62.1,58.5,67.2,61.5,57.6,99,98,93,30.12,29.92,15,1,15,0.37
2013-9-14,57.9,50.7,47.1,56.7,50.3,46.8,99,99,97,30.13,29.94,20,5,20,0.02
2013-9-15,59.2,53.0,44.4,58.9,51.8,43.8,99,96,86,30.12,29.62,11,3,11,0.02
2013-9-16,62.8,51.6,45.5,50.4,44.9,40.8,97,79,57,29.71,29.64,14,2,14,0.01
2013-9-17,58.8,51.9,45.7,58.5,49.8,42.7,99,93,82,29.71,29.40,11,2,11,0.80
2013-9-18,58.5,53.2,47.3,57.1,50.3,43.8,99,90,74,29.93,29.47,11,3,11,0.07
2013-9-19,61.0,53.5,46.0,60.3,51.7,44.0,99,94,82,29.96,29.79,10,2,10,0.04
2013-9-20,67.8,55.2,48.6,55.4,50.4,47.5,97,84,64,30.24,29.94,9,2,9,0.00
2013-9-21,64.9,58.0,50.5,61.7,55.3,47.6,98,91,85,30.37,30.23,8,2,8,0.00
2013-9-22,67.8,62.9,58.5,63.3,60.8,57.6,98,93,84,30.43,30.36,5,1,5,0.00
2013-9-23,65.3,60.6,56.8,61.0,58.9,56.1,99,94,84,30.39,30.16,5,1,5,0.00
2013-9-24,66.7,59.1,52.9,62.8,57.1,52.3,99,93,79,30.17,29.97,4,1,4,0.00
2013-9-25,70.9,61.9,55.8,63.3,58.9,55.5,99,91,69,29.98,29.88,5,0,5,0.08
2013-9-26,62.4,58.0,53.2,59.4,54.7,51.0,99,90,71,30.10,29.96,11,3,11,0.04
2013-9-27,62.1,55.2,49.8,53.9,51.0,49.1,99,86,68,30.10,29.96,11,4,11,0.00
2013-9-28,62.8,56.8,52.2,57.7,53.5,50.5,98,89,73,29.96,29.77,14,4,14,0.01
2013-9-29,62.4,57.4,54.7,54.9,53.0,52.0,93,86,74,29.79,29.74,14,5,14,0.01
2013-9-30,63.3,57.4,53.6,56.8,54.0,50.7,97,89,75,29.82,29.72,8,3,8,0.00
2013-10-1,59.5,55.6,50.5,57.4,53.0,49.7,98,91,84,29.86,29.79,11,3,11,0.00
2013-10-2,65.7,59.7,55.8,63.3,57.9,53.4,99,94,84,29.93,29.82,11,3,11,0.02
2013-10-3,63.9,60.5,57.7,62.7,59.9,57.2,99,98,95,29.92,29.72,17,3,17,0.11
2013-10-4,65.5,61.6,58.1,64.2,60.1,56.4,99,95,83,30.01,29.72,8,2,8,0.08
2013-10-5,64.9,59.1,54.7,59.8,55.9,51.2,99,89,77,30.31,30.00,8,1,8,0.00
2013-10-6,75.0,57.7,50.2,58.2,51.7,48.2,94,81,54,30.36,30.30,4,1,4,0.00
2013-10-7,68.4,58.9,51.1,60.7,55.1,50.0,99,88,74,30.35,30.30,5,1,5,0.00
2013-10-8,72.5,61.7,54.9,61.3,57.4,53.5,97,86,63,30.34,30.29,5,1,5,0.00
2013-10-9,66.9,55.9,44.6,60.5,49.7,37.2,94,80,64,30.30,30.06,17,2,17,0.00
2013-10-10,52.3,46.7,43.0,40.1,38.3,36.3,83,73,59,30.17,30.07,23,8,23,0.00
2013-10-11,54.9,50.5,46.0,52.4,47.1,40.1,97,88,67,30.17,30.04,29,8,29,0.19
2013-10-12,54.5,51.1,47.3,52.2,46.7,41.7,99,86,63,30.17,30.00,24,5,24,0.11
2013-10-13,51.1,48.8,46.2,50.8,47.8,45.0,99,96,88,30.07,29.84,11,3,11,0.35
2013-10-14,53.8,47.9,44.8,51.5,46.8,44.0,99,96,88,29.85,29.76,6,2,6,0.02
2013-10-15,53.4,48.8,45.9,50.5,46.7,45.1,99,93,84,30.00,29.81,11,2,11,0.00
2013-10-16,56.8,49.5,44.1,56.6,48.7,43.5,99,97,92,30.01,29.74,14,2,14,0.07
2013-10-17,67.5,55.9,51.3,63.1,53.5,50.7,99,92,78,30.06,29.89,8,2,8,0.01
2013-10-18,60.4,55.9,53.4,58.6,54.1,52.8,99,94,84,30.07,29.80,17,3,17,0.00
2013-10-19,62.6,57.5,53.8,61.5,56.2,52.5,98,95,92,29.80,29.69,5,2,5,0.01
2013-10-20,61.0,55.5,52.3,59.5,54.7,51.8,98,97,93,29.80,29.67,8,3,8,0.39
2013-10-21,60.4,57.6,54.3,59.0,56.8,53.5,99,97,92,29.81,29.65,12,4,12,0.07
2013-10-22,61.3,58.6,53.6,60.3,57.5,52.4,99,96,92,29.65,29.37,11,4,11,0.24
2013-10-23,65.3,54.9,46.2,61.0,52.5,44.6,99,92,78,29.92,29.31,13,3,13,0.09
2013-10-24,61.7,52.4,43.7,55.9,49.8,43.2,99,91,76,30.02,29.85,11,3,11,0.01
2013-10-25,62.8,58.2,55.2,61.7,56.5,53.5,99,94,86,29.85,29.63,17,4,17,0.08
2013-10-26,59.2,57.2,55.2,57.4,55.4,53.5,97,94,89,29.76,29.55,11,4,11,0.14
2013-10-27,59.4,54.4,49.8,56.4,51.9,49.3,99,91,77,29.55,29.24,14,4,14,0.58
2013-10-28,58.6,51.8,45.7,58.4,50.2,43.8,99,94,82,29.66,28.96,19,5,19,0.43
2013-10-29,60.8,47.2,42.1,50.3,43.0,38.7,99,86,65,30.11,29.66,8,2,8,0.01
2013-10-30,63.3,49.1,40.6,51.9,45.7,39.3,97,88,62,30.22,30.11,10,2,10,0.00
2013-10-31,53.6,52.5,51.4,52.9,51.9,50.9,99,98,93,30.11,29.99,7,2,7,0.15
2013-11-1,55.6,52.4,50.0,54.8,51.7,49.7,99,98,95,29.99,29.58,8,2,8,0.07
2013-11-2,54.9,50.2,46.8,54.0,48.0,42.7,99,92,81,29.63,29.45,13,4,13,0.01
2013-11-3,56.7,46.7,43.0,48.1,42.3,38.6,99,85,66,29.65,29.08,11,3,11,0.31
2013-11-4,53.8,43.3,38.3,49.4,41.0,36.2,99,92,78,29.55,29.03,21,5,21,0.24
2013-11-5,51.3,46.2,37.8,51.0,44.0,36.5,99,92,82,29.58,29.31,12,2,12,0.09
2013-11-6,58.5,53.0,47.1,57.7,51.8,44.0,99,96,89,29.60,29.55,11,3,11,0.05
2013-11-7,56.7,49.4,43.3,55.5,46.7,41.7,96,91,81,29.83,29.59,8,1,8,0.01
2013-11-8,50.2,43.9,40.3,49.4,43.3,40.0,99,98,94,29.83,29.62,11,1,11,0.18
2013-11-9,44.1,40.8,37.2,43.5,40.5,36.5,99,99,97,29.82,29.65,7,1,7,0.22
2013-11-10,49.8,41.2,37.2,48.7,39.2,34.6,99,93,80,30.31,29.66,15,3,15,0.01
2013-11-11,54.3,48.3,37.6,53.5,47.6,36.3,99,97,95,30.29,30.18,10,2,10,0.08
2013-11-12,54.5,49.0,41.0,53.7,47.8,39.4,99,96,89,30.56,30.20,17,3,17,0.05
2013-11-13,58.6,43.4,37.8,49.5,40.3,36.7,98,89,65,30.60,30.25,7,2,7,0.00
2013-11-14,54.3,44.3,38.1,44.8,39.8,35.5,94,84,63,30.46,30.17,22,6,22,0.00
2013-11-15,48.6,40.3,35.6,38.2,34.7,31.2,90,80,67,30.57,30.46,15,4,15,0.00
2013-11-16,61.9,43.7,37.6,48.0,40.5,35.0,97,89,56,30.56,30.41,7,2,7,0.00
2013-11-17,47.3,45.9,44.6,45.1,43.7,42.0,95,92,90,30.42,30.06,7,2,7,0.00
2013-11-18,51.4,46.5,41.2,48.0,44.8,40.7,98,94,84,30.06,29.81,12,2,12,0.05
2013-11-19,47.3,36.7,31.1,42.7,32.9,27.1,98,87,72,30.10,29.84,15,5,15,0.00
2013-11-20,45.3,36.7,30.4,43.1,34.4,26.4,99,91,84,30.08,29.44,17,3,17,0.17
2013-11-21,44.1,39.4,36.1,39.1,36.1,32.2,99,88,69,29.97,29.45,25,8,25,0.05
2013-11-22,43.2,38.0,34.3,36.7,33.9,31.4,94,86,69,30.20,29.97,17,6,17,0.00
2013-11-23,46.6,39.3,34.5,41.8,36.5,33.0,98,90,78,30.36,30.19,14,5,14,0.00
2013-11-24,44.8,41.1,38.5,42.0,37.6,34.8,93,87,74,30.60,30.35,17,5,17,0.01
2013-11-25,42.6,40.0,37.9,38.5,36.7,35.0,95,88,81,30.72,30.60,13,5,13,0.00
2013-11-26,47.7,39.0,32.5,39.6,34.3,28.8,91,83,71,30.75,30.62,10,3,10,0.00
2013-11-27,49.1,45.4,41.5,47.7,43.8,37.1,97,94,84,30.62,30.53,10,2,10,0.01
2013-11-28,48.0,46.4,45.1,45.8,44.6,43.2,95,94,90,30.61,30.56,8,2,8,0.00
2013-11-29,48.7,45.5,41.7,43.8,40.8,35.6,94,84,68,30.57,30.24,19,3,19,0.00
2013-11-30,45.0,41.4,37.2,38.2,36.1,32.2,87,82,76,30.51,30.24,17,6,17,0.00
2013-12-1,47.1,42.4,36.1,42.5,38.7,31.2,93,87,82,30.60,30.48,10,3,10,0.00
2013-12-2,47.3,44.4,42.4,43.1,40.3,38.0,94,85,75,30.60,30.48,8,2,8,0.00
2013-12-3,42.6,41.5,39.7,38.0,36.3,34.3,84,82,78,30.49,30.36,7,1,7,0.00
2013-12-4,46.0,41.5,36.3,43.8,37.0,31.5,92,84,73,30.54,30.35,13,2,13,0.00
2013-12-5,48.7,40.8,34.2,43.5,35.7,30.4,90,82,74,30.52,30.09,17,4,17,0.00
2013-12-6,45.1,40.5,34.9,40.8,35.0,28.6,94,81,71,30.43,30.29,12,2,12,0.00
2013-12-7,48.0,44.3,40.6,45.0,42.5,39.6,97,93,86,30.41,30.32,4,2,4,0.01
2013-12-8,49.8,44.1,39.0,46.8,42.4,38.2,98,94,87,30.37,30.29,8,2,8,0.00
2013-12-9,49.8,43.6,38.3,48.4,42.7,38.0,99,97,91,30.45,30.36,4,1,4,0.00
2013-12-10,46.6,40.5,35.1,45.9,39.8,34.0,99,97,95,30.50,30.44,4,1,4,0.00
2013-12-11,42.1,37.7,32.4,41.8,37.1,31.6,99,98,96,30.47,30.34,8,2,8,0.00
2013-12-12,46.8,42.8,36.5,46.5,42.2,35.7,99,98,97,30.34,30.24,5,2,5,0.00
2013-12-13,51.8,48.2,42.3,49.4,47.0,41.7,99,96,84,30.24,30.07,8,2,8,0.02
2013-12-14,50.2,44.6,36.5,48.2,42.9,34.8,99,94,88,30.34,30.10,14,4,14,0.05
2013-12-15,52.3,50.0,43.9,51.8,49.5,43.3,99,98,97,30.21,30.05,11,4,11,0.22
2013-12-16,52.7,50.1,43.5,52.2,49.6,43.0,99,98,97,30.17,29.98,11,4,11,0.39
2013-12-17,43.3,40.4,38.7,42.8,40.2,38.4,99,99,98,30.30,30.02,14,2,14,0.18
2013-12-18,48.0,44.6,39.2,47.8,44.2,38.9,99,99,97,30.03,29.34,19,5,19,0.17
2013-12-19,46.2,40.5,35.6,45.2,39.4,34.3,99,96,88,29.92,29.38,8,2,8,0.12
2013-12-20,48.2,41.3,33.8,46.2,40.0,33.0,99,95,90,30.22,29.92,12,4,13,0.00
2013-12-21,50.7,48.9,44.1,50.5,48.5,43.3,99,99,94,30.10,29.77,14,6,14,0.39
2013-12-22,48.9,43.4,37.8,48.1,41.2,35.3,99,92,79,29.97,29.78,14,3,14,0.01
2013-12-23,50.7,46.2,38.3,50.5,45.6,36.7,99,98,94,29.96,28.89,21,7,21,0.43
2013-12-24,50.4,44.0,39.2,50.1,43.5,38.9,99,98,97,29.03,28.82,20,4,20,0.37
2013-12-25,43.2,38.0,35.4,42.5,37.6,34.8,99,98,97,29.21,28.97,7,1,7,0.13
2013-12-26,43.2,37.5,33.1,42.6,37.0,32.8,99,98,97,29.54,29.20,19,2,19,0.00
2013-12-27,49.8,44.9,40.6,49.5,43.1,37.2,99,93,86,29.31,29.05,19,6,19,0.11
2013-12-28,46.4,39.2,36.5,42.1,36.8,33.9,97,91,81,29.76,29.31,6,2,6,0.00
2013-12-29,44.8,38.5,34.2,43.2,36.6,32.6,98,93,87,30.12,29.76,9,2,9,0.00
2013-12-30,48.2,44.8,40.1,47.9,44.3,39.8,99,98,94,30.03,29.71,20,5,20,0.17
2013-12-31,48.4,44.3,38.7,47.9,43.8,38.4,99,98,96,29.89,29.59,16,4,16,0.09
2014-1-1,49.1,45.8,41.4,48.8,45.3,41.1,99,98,97,29.62,29.08,23,6,23,0.51
2014-1-2,48.4,45.1,40.5,47.9,44.5,40.2,99,98,96,29.50,29.11,17,4,17,0.12